Location: Fornova de Taro
(44.7000°N, 10.1000°E)
Time: 22:44:24
(UTC+00:00)

Cosmos 1455 Rocket - Pass Details

Date: 26 May 2022
Orbit: 604 x 629 km, 82.5° (Epoch: 02 July)

Event Time Altitude Azimuth Distance (km) Brightness Sun altitude
Rises 00:18:19 0° 356° (N) 2,931 7.7 -22.7°
Reaches altitude 10° 00:20:38 10° 1° (N) 2,017 6.7 -22.6°
Maximum altitude 00:25:00 50° 78° (ENE) 802 3.7 -22.4°
Enters shadow 00:26:16 38° 126° (SE) 969 3.8 -22.3°
